Location: Kellogg
(38.0159°N, 90.0546°W)
Time: 08:26:25
(UTC+00:00)

Altair - Pass Details

Date: 19 September 2024
Orbit: 1501 x 1682 km, 47.2° (Epoch: 07 October)

Event Time Altitude Azimuth Distance (km) Brightness Sun altitude
Rises 14:09:14 0° 301° (WNW) 4,938 9.6 26.8°
Reaches altitude 10° 14:12:29 10° 297° (WNW) 3,948 9.2 27.4°
Maximum altitude 14:22:19 58° 223° (SW) 1,902 8.3 29.2°
Drops below altitude 10° 14:31:56 10° 147° (SSE) 3,857 10.6 30.9°
Sets 14:35:04 0° 144° (SE) 4,819 11.0 31.5°
